TimeEDT,TemperatureF,Dew PointF,Humidity,Sea Level PressureIn,VisibilityMPH,Wind Direction,Wind SpeedMPH,Gust SpeedMPH,PrecipitationIn,Events,Conditions,WindDirDegrees,DateUTC
12:52 AM,28.0,19.9,72,30.14,10.0,SW,4.6,-,N/A,,Clear,220,2013-03-15 04:52:00
1:52 AM,28.0,21.0,75,30.12,10.0,SW,5.8,-,N/A,,Clear,220,2013-03-15 05:52:00
2:52 AM,30.9,21.0,67,30.10,10.0,SW,8.1,-,N/A,,Clear,230,2013-03-15 06:52:00
3:52 AM,30.9,21.0,67,30.08,10.0,SW,6.9,-,N/A,,Mostly Cloudy,220,2013-03-15 07:52:00
4:52 AM,32.0,21.9,66,30.05,10.0,WSW,10.4,17.3,N/A,,Overcast,240,2013-03-15 08:52:00
5:52 AM,30.9,23.0,72,30.04,10.0,SW,9.2,-,N/A,,Partly Cloudy,230,2013-03-15 09:52:00
6:52 AM,30.0,24.1,79,30.02,10.0,SSW,8.1,-,N/A,,Clear,210,2013-03-15 10:52:00
7:16 AM,30.2,24.8,80,29.98,10.0,SSW,9.2,-,N/A,,Mostly Cloudy,210,2013-03-15 11:16:00
7:48 AM,30.2,26.6,86,29.97,10.0,SW,10.4,-,N/A,,Scattered Clouds,220,2013-03-15 11:48:00
7:52 AM,30.9,26.1,82,30.00,10.0,SW,10.4,-,N/A,,Partly Cloudy,220,2013-03-15 11:52:00
8:52 AM,32.0,27.0,82,29.99,10.0,SW,9.2,-,N/A,,Clear,220,2013-03-15 12:52:00
9:52 AM,34.0,27.0,75,29.99,10.0,SW,13.8,-,N/A,,Clear,230,2013-03-15 13:52:00
10:52 AM,36.0,28.9,76,29.99,10.0,WSW,10.4,-,N/A,,Partly Cloudy,240,2013-03-15 14:52:00
11:52 AM,39.0,30.9,73,29.96,10.0,WSW,11.5,-,N/A,,Clear,250,2013-03-15 15:52:00
12:52 PM,42.1,32.0,67,29.94,10.0,WSW,10.4,-,N/A,,Clear,240,2013-03-15 16:52:00
1:52 PM,43.0,33.1,68,29.92,10.0,SW,12.7,-,N/A,,Partly Cloudy,230,2013-03-15 17:52:00
2:52 PM,44.1,33.1,65,29.89,10.0,West,10.4,-,N/A,,Scattered Clouds,260,2013-03-15 18:52:00
3:52 PM,44.1,33.1,65,29.88,10.0,West,13.8,19.6,N/A,,Partly Cloudy,260,2013-03-15 19:52:00
4:26 PM,44.6,33.8,66,29.85,10.0,WSW,10.4,-,N/A,,Mostly Cloudy,240,2013-03-15 20:26:00
4:52 PM,45.0,34.0,65,29.87,10.0,West,8.1,-,N/A,,Mostly Cloudy,260,2013-03-15 20:52:00
5:29 PM,44.6,33.8,66,29.85,10.0,WSW,8.1,-,N/A,,Mostly Cloudy,250,2013-03-15 21:29:00
5:52 PM,44.1,35.1,71,29.88,10.0,WSW,10.4,-,N/A,,Overcast,250,2013-03-15 21:52:00
6:52 PM,43.0,35.1,74,29.88,9.0,WSW,6.9,-,N/A,,Overcast,250,2013-03-15 22:52:00
7:25 PM,42.8,35.6,76,29.85,9.0,WSW,5.8,-,N/A,,Overcast,240,2013-03-15 23:25:00
7:52 PM,42.1,35.1,76,29.88,9.0,WSW,5.8,-,N/A,,Overcast,240,2013-03-15 23:52:00
8:29 PM,42.8,35.6,76,29.86,7.0,WSW,3.5,-,0.00,Rain,Light Rain,250,2013-03-16 00:29:00
8:52 PM,41.0,36.0,82,29.88,7.0,WSW,3.5,-,0.01,Rain,Light Rain,240,2013-03-16 00:52:00
9:52 PM,39.9,37.9,93,29.88,4.0,Calm,Calm,-,0.01,Rain,Light Rain,0,2013-03-16 01:52:00
10:52 PM,39.9,39.0,97,29.86,4.0,Calm,Calm,-,0.02,Rain,Light Rain,0,2013-03-16 02:52:00
11:39 PM,39.2,37.4,93,29.83,2.5,Calm,Calm,-,0.01,Rain,Light Rain,0,2013-03-16 03:39:00
11:52 PM,39.0,37.9,96,29.86,2.5,Calm,Calm,-,0.01,Rain,Light Rain,0,2013-03-16 03:52:00